Location: Fort Worth, Tx
(32.7431°N, 97.3695°W)
Time: 11:37:38
(UTC-04:00)

Courier 1B - Pass Details

Date: 03 March 2024
Orbit: 962 x 1208 km, 28.3° (Epoch: 24 April)

Event Time Altitude Azimuth Distance (km) Brightness Sun altitude
Rises 21:14:53 0° 229° (SW) 3,954 11.3 -23.1°
Reaches altitude 10° 21:18:02 10° 220° (SW) 2,956 10.4 -23.7°
Maximum altitude 21:24:18 32° 159° (SSE) 1,720 8.5 -25.0°
Enters shadow 21:24:33 32° 155° (SSE) 1,720 8.5 -25.1°
